Lumberton, NC

9:59 AM EDT on June 23, 2017 (GMT -0400)
Lumberton Municipal

Weather History for KLBT - June, 2012

Change the Weather History Date:

Monday, June 18, 2012

  Actual Average Record
Temperature  
Mean Temperature 73 °F 79 °F  
Max Temperature 87 °F 89 °F 104 °F (2015)
Min Temperature 58 °F 68 °F 58 °F (2005)
Degree Days  
Heating Degree Days 0 0  
Month to date heating degree days 0 0  
Since 1 June heating degree days 0 0  
Since 1 July heating degree days 2138 2761  
Cooling Degree Days 8 14  
Month to date cooling degree days 142 211  
Year to date cooling degree days 548 461  
Since 1 June cooling degree days 142 211  
Growing Degree Days 22 (Base 50)    
Moisture  
Dew Point 61 °F    
Average Humidity 71    
Maximum Humidity 100    
Minimum Humidity 42    
Precipitation  
Precipitation 0.00 in 0.15 in 0.26 in (2011)
Month to date precipitation 1.31 2.77  
Year to date precipitation 18.34 17.84  
Sea Level Pressure  
Sea Level Pressure 30.08 in    
Wind  
Wind Speed 4 mph (South)    
Max Wind Speed 9 mph    
Max Gust Speed 16 mph    
Visibility 10 miles    
Events      
T = Trace of Precipitation, MM = Missing Value Source: NWS Daily Summary

Daily Weather History Graph

Daily Weather History Graph

Search for Another Location

Airport or City:

Trip Planner

Search our weather history database for the weather conditions in past years. The results will help you decide how hot, cold, wet, or windy it might be!

Date:

Astronomy

Jun. 18, 2012 Rise Set
Actual Time 6:03 AM EDT 8:31 PM EDT
Civil Twilight 5:33 AM EDT 9:01 PM EDT
Nautical Twilight 4:57 AM EDT 9:37 PM EDT
Astronomical Twilight 4:17 AM EDT 10:17 PM EDT
Moon 5:14 AM EDT (6/18) 7:50 PM EDT (6/18)
Length of Visible Light 15h 27m
Length of Day
14h 28m
Waning Crescent, 1% of the Moon is Illuminated
Jun 18
Waning Crescent
Jun 19
New
Jun 26
First Quarter
Jul 3
Full
Jul 10
Last Quarter

Hourly Weather History & Observations

Time (EDT) Temp. Heat Index Dew Point Humidity Pressure Visibility Wind Dir Wind Speed Gust Speed Precip Events Conditions
12:54 AM 61.0 °F - 57.0 °F 87% 30.06 in 10.0 mi Calm Calm - N/A   Clear
1:54 AM 60.1 °F - 57.0 °F 90% 30.06 in 10.0 mi Calm Calm - N/A   Clear
2:54 AM 60.1 °F - 57.9 °F 93% 30.06 in 10.0 mi Calm Calm - N/A   Clear
3:54 AM 60.1 °F - 59.0 °F 96% 30.06 in 10.0 mi Calm Calm - N/A   Clear
4:54 AM 59.0 °F - 57.9 °F 96% 30.06 in 7.0 mi Calm Calm - N/A   Clear
5:54 AM 59.0 °F - 57.9 °F 96% 30.07 in 9.0 mi Calm Calm - N/A   Clear
6:54 AM 61.0 °F - 60.1 °F 97% 30.09 in 8.0 mi Calm Calm - N/A   Clear
7:54 AM 66.9 °F - 64.0 °F 90% 30.10 in 10.0 mi Calm Calm - N/A   Clear
8:54 AM 72.0 °F - 64.9 °F 78% 30.10 in 10.0 mi SW 6.9 mph - N/A   Clear
9:54 AM 75.9 °F - 63.0 °F 64% 30.12 in 10.0 mi WSW 6.9 mph - N/A   Partly Cloudy
11:54 AM 81.0 °F 81.3 °F 59.0 °F 47% 30.11 in 10.0 mi Variable 5.8 mph - N/A   Clear
12:54 PM 82.9 °F 82.8 °F 59.0 °F 44% 30.11 in 10.0 mi SSW 4.6 mph - N/A   Scattered Clouds
1:54 PM 84.0 °F 83.8 °F 59.0 °F 43% 30.09 in 10.0 mi Variable 4.6 mph - N/A   Clear
2:54 PM 84.0 °F 84.4 °F 61.0 °F 46% 30.07 in 10.0 mi SE 6.9 mph - N/A   Mostly Cloudy
3:54 PM 86.0 °F 86.1 °F 61.0 °F 43% 30.06 in 10.0 mi Variable 3.5 mph - N/A   Partly Cloudy
4:54 PM 86.0 °F 86.1 °F 61.0 °F 43% 30.05 in 10.0 mi South 8.1 mph - N/A   Clear
5:54 PM 84.9 °F 85.4 °F 62.1 °F 46% 30.05 in 10.0 mi Variable 4.6 mph - N/A   Clear
6:54 PM 84.0 °F 84.9 °F 63.0 °F 49% 30.06 in 10.0 mi SE 5.8 mph - N/A   Mostly Cloudy
7:54 PM 81.0 °F 82.5 °F 64.0 °F 56% 30.06 in 10.0 mi Variable 3.5 mph - N/A   Clear
8:54 PM 77.0 °F - 64.9 °F 66% 30.07 in 10.0 mi South 4.6 mph - N/A   Clear
9:54 PM 73.9 °F - 64.0 °F 71% 30.10 in 10.0 mi SSE 4.6 mph - N/A   Clear
10:54 PM 72.0 °F - 64.9 °F 78% 30.12 in 10.0 mi SSE 3.5 mph - N/A   Clear
11:54 PM 71.1 °F - 64.9 °F 81% 30.13 in 9.0 mi Calm Calm - N/A   Clear